Forks, WA

7:37 PM PST on January 23, 2017 (GMT -0800)
Quillayute

Weather History for KUIL - May, 2012

Change the Weather History Date:

Saturday, May 12, 2012

  Actual Average Record
Temperature  
Mean Temperature 56 °F 51 °F  
Max Temperature 75 °F 59 °F 79 °F (1973)
Min Temperature 37 °F 42 °F 29 °F (1977)
Degree Days  
Heating Degree Days 9 14  
Month to date heating degree days 183  
Since 1 July heating degree days 5225  
Cooling Degree Days 0 0  
Month to date cooling degree days 0  
Year to date cooling degree days 0  
Growing Degree Days 6 (Base 50)    
Moisture  
Dew Point 21 °F    
Average Humidity 25    
Maximum Humidity 55    
Minimum Humidity 4    
Precipitation  
Precipitation 0.00 in 0.16 in 3.36 in (1986)
Month to date precipitation 2.20  
Year to date precipitation 45.84  
Sea Level Pressure  
Sea Level Pressure 30.18 in    
Wind  
Wind Speed 6 mph (NNW)    
Max Wind Speed 15 mph    
Max Gust Speed 18 mph    
Visibility 10 miles    
Events      
T = Trace of Precipitation, MM = Missing Value Source: NWS Daily Summary

Daily Weather History Graph

Daily Weather History Graph

Search for Another Location

Airport or City:

Trip Planner

Search our weather history database for the weather conditions in past years. The results will help you decide how hot, cold, wet, or windy it might be!

Date:

Astronomy

May. 12, 2012 Rise Set
Actual Time 5:42 AM PDT 8:47 PM PDT
Civil Twilight 5:06 AM PDT 9:23 PM PDT
Nautical Twilight 4:18 AM PDT 10:11 PM PDT
Astronomical Twilight 3:20 AM PDT 11:10 PM PDT
Moon 1:54 AM PDT (5/12) 12:39 PM PDT (5/12)
Length of Visible Light 16h 17m
Length of Day
15h 04m
Waning Gibbous, 51% of the Moon is Illuminated
May 12
Waning Gibbous
May 12
Last Quarter
May 20
New
May 28
First Quarter
Jun 4
Full

Hourly Weather History & Observations

Time (PDT) Temp. Windchill Dew Point Humidity Pressure Visibility Wind Dir Wind Speed Gust Speed Precip Events Conditions
12:53 AM 42.1 °F - - N/A% 30.19 in 10.0 mi Calm Calm - N/A   Clear
1:53 AM 41.0 °F 38.0 °F - N/A% 30.19 in 10.0 mi East 4.6 mph - N/A   Clear
2:53 AM 42.1 °F 39.2 °F -29.0 °F 4% 30.19 in 10.0 mi East 4.6 mph - N/A   Clear
3:53 AM 41.0 °F 39.0 °F -17.0 °F 8% 30.19 in 10.0 mi East 3.5 mph - N/A   Clear
4:53 AM 39.0 °F 36.8 °F -18.0 °F 8% 30.19 in 10.0 mi ENE 3.5 mph - N/A   Clear
5:53 AM 37.0 °F - -14.1 °F 11% 30.19 in 10.0 mi Calm Calm - N/A   Clear
6:53 AM 43.0 °F - -18.0 °F 7% 30.20 in 10.0 mi Calm Calm - N/A   Clear
7:53 AM 50.0 °F - - N/A% 30.21 in 10.0 mi East 3.5 mph - N/A   Clear
8:53 AM 57.0 °F - 28.0 °F 33% 30.20 in 10.0 mi Calm Calm - N/A   Clear
9:53 AM 64.9 °F - 35.1 °F 33% 30.20 in 10.0 mi East 4.6 mph - N/A   Clear
10:53 AM 69.1 °F - 33.1 °F 26% 30.20 in 10.0 mi Variable 4.6 mph - N/A   Clear
11:53 AM 72.0 °F - - N/A% 30.19 in 10.0 mi SW 6.9 mph - N/A   Clear
12:53 PM 72.0 °F - 35.1 °F 26% 30.19 in 10.0 mi Variable 5.8 mph - N/A   Clear
1:43 PM 73.4 °F - 33.8 °F 23% 30.18 in 1.5 mi West 10.4 mph - N/A   Haze
1:53 PM 73.9 °F - 34.0 °F 23% 30.18 in 6.0 mi West 10.4 mph - N/A   Haze
2:53 PM 73.9 °F - 30.9 °F 21% 30.18 in 10.0 mi NW 9.2 mph - N/A   Clear
3:53 PM 71.1 °F - 35.1 °F 27% 30.17 in 10.0 mi WNW 11.5 mph - N/A   Clear
4:00 PM - - - N/A% - - North - - N/A   Unknown
4:53 PM 70.0 °F - 32.0 °F 25% 30.17 in 10.0 mi NNW 9.2 mph - N/A   Clear
5:53 PM 68.0 °F - 28.9 °F 23% 30.15 in 10.0 mi NW 12.7 mph - N/A   Clear
6:53 PM 69.1 °F - 30.9 °F 24% 30.14 in 10.0 mi NW 5.8 mph - N/A   Clear
7:00 PM - - - N/A% - - North - - N/A   Unknown
7:53 PM 59.0 °F - 35.1 °F 41% 30.15 in 10.0 mi NNW 6.9 mph - N/A   Clear
8:53 PM 55.0 °F - 36.0 °F 49% 30.15 in 10.0 mi NNW 4.6 mph - N/A   Clear
9:53 PM 53.1 °F - 37.0 °F 55% 30.17 in 10.0 mi Calm Calm - N/A   Clear
10:00 PM - - - N/A% - - North - - N/A   Unknown
10:53 PM 54.0 °F - 34.0 °F 47% 30.17 in 10.0 mi North 9.2 mph - N/A   Clear
11:53 PM 53.1 °F - 34.0 °F 48% 30.17 in 10.0 mi North 9.2 mph - N/A   Clear